When you browse on this site, cookies collect data to enhance your experience and personalize the content and advertising you see.
Visit our Privacy Policy to learn more. By continuing to use the site, you agree to this use of cookies and data.
  • In Hungary
  • List of Countries
  • For 7 days
  • Water Temperature
  • Satellite Maps
  • Weather Map
  • News
  • Weather Widgets
  • user-avatar
    Login

    Hourly Weather Layton

    Today, 20 February, Wednesday

    Time Temperature Precipitation Wind Pressure Humidity
    00:00 -10°C° 0.2 mm 4 mps 643 mmHg 90%
    01:00 -10°C° 0.2 mm 4 mps 643 mmHg 90%
    02:00 -10°C° 0.2 mm 4 mps 642 mmHg 89%
    03:00 -10°C° 0.2 mm 4 mps 642 mmHg 89%
    04:00 -10°C° 0.2 mm 4 mps 641 mmHg 89%
    05:00 -11°C° 0.2 mm 4 mps 641 mmHg 89%
    06:00 -11°C° 0.2 mm 4 mps 640 mmHg 88%
    07:00 -12°C° 0.2 mm 5 mps 640 mmHg 87%
    08:00 -12°C° 0.2 mm 5 mps 639 mmHg 86%
    09:00 -11°C° 0.1 mm 5 mps 639 mmHg 83%
    10:00 -10°C° 0.1 mm 5 mps 639 mmHg 80%
    11:00 -7°C° 0.1 mm 4 mps 639 mmHg 77%
    12:00 -7°C° 0 mm 4 mps 639 mmHg 75%
    13:00 -5°C° 0 mm 4 mps 639 mmHg 73%
    14:00 -4°C° 0 mm 3 mps 638 mmHg 72%
    15:00 -4°C° 0 mm 3 mps 638 mmHg 73%
    16:00 -3°C° 0 mm 2 mps 638 mmHg 74%
    17:00 -3°C° 0 mm 2 mps 638 mmHg 75%
    18:00 -4°C° 0 mm 2 mps 638 mmHg 76%
    19:00 -6°C° 0 mm 2 mps 638 mmHg 77%
    20:00 -7°C° 0 mm 2 mps 638 mmHg 79%
    21:00 -9°C° 0 mm 3 mps 638 mmHg 78%
    22:00 -9°C° 0 mm 3 mps 638 mmHg 78%
    23:00 -9°C° 0 mm 3 mps 638 mmHg 78%

    Tomorrow, 21 February, Thursday

    Time Temperature Precipitation Wind Pressure Humidity
    00:00 -10°C° 0 mm 3 mps 638 mmHg 77%
    01:00 -10°C° 0 mm 3 mps 638 mmHg 76%
    02:00 -10°C° 0 mm 3 mps 638 mmHg 75%
    03:00 -10°C° 0 mm 3 mps 638 mmHg 76%
    04:00 -10°C° 0 mm 3 mps 638 mmHg 76%
    05:00 -11°C° 0 mm 4 mps 638 mmHg 76%
    06:00 -11°C° 0 mm 4 mps 638 mmHg 76%
    07:00 -11°C° 0 mm 4 mps 638 mmHg 76%
    08:00 -11°C° 0 mm 4 mps 638 mmHg 76%
    09:00 -10°C° 0 mm 4 mps 638 mmHg 74%
    10:00 -9°C° 0 mm 4 mps 638 mmHg 72%
    11:00 -8°C° 0 mm 4 mps 638 mmHg 70%
    12:00 -6°C° 0 mm 3 mps 638 mmHg 69%
    13:00 -5°C° 0 mm 3 mps 638 mmHg 68%
    14:00 -4°C° 0 mm 3 mps 638 mmHg 68%
    15:00 -4°C° 0 mm 3 mps 639 mmHg 69%
    16:00 -4°C° 0 mm 3 mps 639 mmHg 71%
    17:00 -5°C° 0 mm 3 mps 639 mmHg 73%
    18:00 -6°C° 0 mm 3 mps 639 mmHg 75%
    19:00 -8°C° 0 mm 3 mps 639 mmHg 76%
    20:00 -9°C° 0 mm 3 mps 640 mmHg 78%
    21:00 -10°C° 0 mm 3 mps 640 mmHg 77%
    22:00 -10°C° 0 mm 3 mps 640 mmHg 77%
    23:00 -12°C° 0 mm 3 mps 640 mmHg 77%

    Day after tomorrow, 22 February, Friday

    Time Temperature Precipitation Wind Pressure Humidity
    00:00 -12°C° 0 mm 3 mps 641 mmHg 77%
    01:00 -12°C° 0 mm 3 mps 641 mmHg 77%
    02:00 -12°C° 0 mm 3 mps 641 mmHg 77%
    03:00 -10°C° 0 mm 2 mps 642 mmHg 77%
    04:00 -12°C° 0 mm 2 mps 642 mmHg 78%
    05:00 -12°C° 0 mm 2 mps 642 mmHg 78%
    06:00 -12°C° 0 mm 2 mps 643 mmHg 77%
    07:00 -12°C° 0 mm 2 mps 643 mmHg 77%
    08:00 -12°C° 0 mm 2 mps 644 mmHg 77%
    09:00 -9°C° 0 mm 2 mps 644 mmHg 74%
    10:00 -7°C° 0 mm 1 mps 645 mmHg 71%
    11:00 -4°C° 0 mm 1 mps 645 mmHg 68%
    12:00 -3°C° 0 mm 1 mps 645 mmHg 69%
    13:00 -5°C° 0 mm 2 mps 644 mmHg 70%
    14:00 -5°C° 0 mm 2 mps 644 mmHg 71%
    15:00 -5°C° 0 mm 2 mps 644 mmHg 71%
    16:00 -3°C° 0 mm 1 mps 644 mmHg 72%
    17:00 -3°C° 0 mm 1 mps 645 mmHg 73%
    18:00 -6°C° 0 mm 1 mps 645 mmHg 76%
    19:00 -7°C° 0 mm 1 mps 646 mmHg 79%
    20:00 -8°C° 0 mm 1 mps 646 mmHg 82%
    21:00 -8°C° 0 mm 1 mps 647 mmHg 81%
    22:00 -10°C° 0 mm 2 mps 647 mmHg 79%
    23:00 -10°C° 0 mm 2 mps 648 mmHg 78%

    23 February, Saturday

    Time Temperature Precipitation Wind Pressure Humidity
    00:00 -10°C° 0 mm 2 mps 648 mmHg 77%
    01:00 -12°C° 0 mm 3 mps 648 mmHg 76%
    02:00 -12°C° 0 mm 3 mps 648 mmHg 75%
    03:00 -12°C° 0 mm 3 mps 648 mmHg 75%
    04:00 -12°C° 0 mm 3 mps 648 mmHg 75%
    05:00 -12°C° 0 mm 3 mps 648 mmHg 75%
    06:00 -12°C° 0 mm 3 mps 649 mmHg 75%
    07:00 -10°C° 0 mm 3 mps 649 mmHg 75%
    08:00 -10°C° 0 mm 3 mps 649 mmHg 75%
    09:00 -8°C° 0 mm 3 mps 649 mmHg 72%
    10:00 -7°C° 0 mm 4 mps 649 mmHg 69%
    11:00 -4°C° 0 mm 4 mps 649 mmHg 66%
    12:00 -4°C° 0 mm 4 mps 649 mmHg 65%
    13:00 -2°C° 0 mm 3 mps 649 mmHg 65%
    14:00 -2°C° 0 mm 3 mps 648 mmHg 65%
    15:00 -2°C° 0.1 mm 3 mps 648 mmHg 68%
    16:00 -2°C° 0.1 mm 3 mps 648 mmHg 71%
    17:00 -2°C° 0.1 mm 2 mps 648 mmHg 74%
    18:00 -3°C° 0 mm 2 mps 648 mmHg 76%
    19:00 -4°C° 0 mm 3 mps 649 mmHg 77%
    20:00 -4°C° 0 mm 3 mps 649 mmHg 79%
    21:00 -4°C° 0 mm 3 mps 649 mmHg 79%
    22:00 -4°C° 0 mm 3 mps 650 mmHg 78%
    23:00 -4°C° 0 mm 4 mps 650 mmHg 78%

    24 February, Sunday

    Time Temperature Precipitation Wind Pressure Humidity
    00:00 -5°C° 0 mm 4 mps 650 mmHg 77%
    01:00 -5°C° 0 mm 3 mps 650 mmHg 77%
    02:00 -5°C° 0 mm 3 mps 650 mmHg 76%
    03:00 -5°C° 0 mm 3 mps 650 mmHg 76%
    04:00 -5°C° 0 mm 3 mps 649 mmHg 76%
    05:00 -6°C° 0 mm 3 mps 649 mmHg 76%
    06:00 -6°C° 0 mm 3 mps 649 mmHg 75%
    07:00 -6°C° 0 mm 3 mps 649 mmHg 74%
    08:00 -6°C° 0 mm 3 mps 649 mmHg 74%
    09:00 -4°C° 0 mm 3 mps 649 mmHg 70%
    10:00 -2°C° 0 mm 3 mps 649 mmHg 67%
    11:00 +1°C° 0 mm 2 mps 649 mmHg 64%
    12:00 +2°C° 0 mm 2 mps 648 mmHg 63%
    13:00 +2°C° 0 mm 2 mps 648 mmHg 62%
    14:00 +3°C° 0 mm 2 mps 647 mmHg 61%
    15:00 +2°C° 0 mm 2 mps 647 mmHg 63%
    16:00 +2°C° 0 mm 2 mps 646 mmHg 65%
    17:00 +3°C° 0 mm 1 mps 646 mmHg 67%
    18:00 +1°C° 0 mm 2 mps 646 mmHg 69%
    19:00 -2°C° 0 mm 2 mps 646 mmHg 70%
    20:00 -4°C° 0 mm 3 mps 646 mmHg 71%
    21:00 -4°C° 0 mm 3 mps 646 mmHg 70%
    22:00 -4°C° 0 mm 4 mps 646 mmHg 69%
    23:00 -5°C° 0 mm 4 mps 646 mmHg 68%

    25 February, Monday

    Time Temperature Precipitation Wind Pressure Humidity
    00:00 -5°C° 0 mm 4 mps 646 mmHg 66%
    01:00 -5°C° 0 mm 4 mps 645 mmHg 65%
    02:00 -6°C° 0 mm 5 mps 645 mmHg 63%
    03:00 -6°C° 0 mm 5 mps 644 mmHg 62%
    04:00 -5°C° 0 mm 5 mps 644 mmHg 61%
    05:00 -5°C° 0 mm 6 mps 643 mmHg 60%
    06:00 -5°C° 0 mm 6 mps 643 mmHg 62%
    07:00 -4°C° 0 mm 6 mps 643 mmHg 64%
    08:00 -3°C° 0 mm 6 mps 643 mmHg 66%
    09:00 -2°C° 0.2 mm 7 mps 642 mmHg 66%
    10:00 -1°C° 0.2 mm 8 mps 642 mmHg 66%
    11:00 0°C° 0.2 mm 9 mps 641 mmHg 66%
    12:00 0°C° 0.2 mm 8 mps 641 mmHg 66%
    13:00 +1°C° 0.2 mm 8 mps 640 mmHg 67%
    14:00 +2°C° 0.2 mm 8 mps 640 mmHg 67%
    15:00 +2°C° 1.2 mm 7 mps 640 mmHg 73%
    16:00 0°C° 1.2 mm 7 mps 640 mmHg 80%
    17:00 -1°C° 1.2 mm 6 mps 641 mmHg 86%
    18:00 -1°C° 0.8 mm 5 mps 641 mmHg 86%
    19:00 -1°C° 0.8 mm 3 mps 642 mmHg 86%
    20:00 -2°C° 0.8 mm 2 mps 643 mmHg 85%
    21:00 -3°C° 0.3 mm 2 mps 644 mmHg 86%
    22:00 -3°C° 0.3 mm 2 mps 644 mmHg 86%
    23:00 -2°C° 0.3 mm 1 mps 645 mmHg 87%
    Show more